Terminal Aerodrome Forecast
Issued by NWS Portland, OR

Home | Current Version | Previous Version | Text Only | Print | Product List | Glossary On
Versions: 1 2 3 4 5 6 7 8 9 10 11 12 13 14 15 16 17 18 19 20 21 22 23 24 25 26 27 28 29 30 31 32 33 34 35 36 37 38
000
FTUS46 KPQR 222340
TAFAST
TAF
KAST 222340Z 2300/2324 23007KT P6SM BKN035
     FM230300 18004KT P6SM VCSH OVC030
     FM230600 16004KT 6SM -RA OVC020
     FM232000 17011G18KT 6SM -RA OVC050=

USA.gov is the U.S. government's official web portal to all federal, state and local government web resources and services.